Regional Weather Roundup
Issued by NWS

Home | Current Version | Previous Version | Graphics & Text | Print | Product List | Glossary On
Versions: 1 2 3 4 5 6 7 8 9 10 11 12 13 14 15 16 17 18 19 20 21 22 23 24 25 26 27 28 29 30 31 32 33 34 35 36 37 38 39 40 41 42 43 44 45 46 47 48 49 50
752
ASUS43 KOAX 290602
RWRNE

WEATHER ROUNDUP FOR NEBRASKA
NATIONAL WEATHER SERVICE OMAHA NE
100 AM CDT FRI JUL 29 2016

NOTES: SATELLITE DATA IS BEING USED TO AUGMENT CLOUD COVER ABOVE
       12000 FEET.
       "FAIR" INDICATES FEW OR NO CLOUDS BELOW 12,000 FEET WITH NO
       SIGNIFICANT WEATHER AND/OR OBSTRUCTIONS TO VISIBILITY.

  * THESE STATIONS DO NOT REPORT WEATHER SUCH AS RAIN...SNOW OR FOG.

NEZ001>004-019>022-054>056-290700-
NEBRASKA PANHANDLE

CITY           SKY/WX    TMP DP  RH WIND       PRES   REMARKS
SCOTTSBLUFF    CLEAR     63  60  90 NE6       30.17F
6HR MIN TEMP:  63; 6HR MAX TEMP:  81;

ALLIANCE       CLEAR     60  57  89 N3        30.18R
6HR MIN TEMP:  60; 6HR MAX TEMP:  77;

CHADRON        CLEAR     60  57  89 SW3       30.17R
6HR MIN TEMP:  60; 6HR MAX TEMP:  78;

SIDNEY         PTCLDY    62  59  90 SW7       30.23R
6HR MIN TEMP:  59; 6HR MAX TEMP:  77;

$$

NEZ057>060-069>072-079>082-290700-
SOUTHWEST NEBRASKA

CITY           SKY/WX    TMP DP  RH WIND       PRES   REMARKS
NORTH PLATTE   CLEAR     60  58  92 CALM      30.12S
6HR MIN TEMP:  60; 6HR MAX TEMP:  75;

IMPERIAL       CLEAR     63  60  90 CALM      30.17R
6HR MIN TEMP:  62; 6HR MAX TEMP:  76;

LEXINGTON      MOCLDY    66  62  89 NE8       30.12R
MCCOOK         CLEAR     63  60  90 CALM      30.11S
6HR MIN TEMP:  62; 6HR MAX TEMP:  74;

OGALLALA       CLEAR     62  59  91 CALM      30.15R
$$

NEZ005>010-023>029-035>040-094-290700-
NORTH CENTRAL NEBRASKA

CITY           SKY/WX    TMP DP  RH WIND       PRES   REMARKS
VALENTINE      PTCLDY    59  58  96 CALM      30.13S
6HR MIN TEMP:  59; 6HR MAX TEMP:  77; 6HR PCP:  0.03;

AINSWORTH      CLEAR     60  60 100 CALM      30.12F FOG
BROKEN BOW     CLOUDY    62  62 100 W3        30.12R
6HR MIN TEMP:  62; 6HR MAX TEMP:  76; 6HR PCP:  0.18;

O`NEILL        CLOUDY    66  64  93 N5        30.10F
ORD            CLOUDY    68  64  87 CALM      30.08F
6HR MIN TEMP:  67; 6HR MAX TEMP:  76; 6HR PCP:  0.03;

THEDFORD       CLEAR     61  59  95 CALM      30.14S
$$

NEZ041-046>049-061>064-073>077-083>087-290700-
SOUTH CENTRAL NEBRASKA

CITY           SKY/WX    TMP DP  RH WIND       PRES   REMARKS
GRAND ISLAND   MOCLDY    68  65  90 N5        30.09S
6HR MIN TEMP:  67; 6HR MAX TEMP:  74;

AURORA         CLOUDY    66  65  97 NE3       30.07F
HASTINGS       CLEAR     66  64  93 CALM      30.08F
6HR MIN TEMP:  66; 6HR MAX TEMP:  70;

HEBRON         MOCLDY    67  64  90 CALM      30.05S
HOLDREGE       CLEAR     63  61  95 NE3       30.09F FOG
KEARNEY *      CLOUDY    66  10  11 NE7       30.11S THUNDER
YORK           CLOUDY    66  64  94 NW3       30.07F
$$

NEZ011>018-030>034-042>045-290700-
NORTHEAST NEBRASKA

CITY           SKY/WX    TMP DP  RH WIND       PRES   REMARKS
NORFOLK        CLOUDY    68  62  81 E3        30.07F
6HR MIN TEMP:  68; 6HR MAX TEMP:  76;

ALBION         CLOUDY    68  63  85 NE3       30.08F
BLAIR          CLOUDY    69  64  84 N3        30.04F
FREMONT        CLOUDY    71  63  75 CALM      30.05S
TEKAMAH        CLOUDY    67  63  87 NW7       30.04F
6HR MIN TEMP:  67; 6HR MAX TEMP:  79;

WAYNE          MOCLDY    64  63  96 CALM      30.08F
$$

NEZ050>053-065>068-078-088>093-290700-
SOUTHEAST NEBRASKA

CITY           SKY/WX    TMP DP  RH WIND       PRES   REMARKS
LINCOLN        CLOUDY    72  64  76 N3        30.04F
6HR MIN TEMP:  71; 6HR MAX TEMP:  80;

OMAHA EPPLEY   CLOUDY    70  65  84 NW5       30.02F
6HR MIN TEMP:  70; 6HR MAX TEMP:  81; 6HR PCP: TRACE;

BEATRICE       PTCLDY    68  63  84 NE5       30.03S
FALLS CITY     CLOUDY    71  67  87 SE3       30.00S
6HR MIN TEMP:  71; 6HR MAX TEMP:  82;

NEBRASKA CITY  CLOUDY    70  65  84 N5        30.02F
PLATTSMOUTH    CLOUDY    70  64  80 N3        30.03F
$$

NEZ044-045-051>053-067-290700-
OMAHA AREA

CITY           SKY/WX    TMP DP  RH WIND       PRES   REMARKS
OMAHA EPPLEY   CLOUDY    70  65  84 NW5       30.02F
6HR MIN TEMP:  70; 6HR MAX TEMP:  81; 6HR PCP: TRACE;

BLAIR          CLOUDY    69  64  84 N3        30.04F
FREMONT        CLOUDY    71  63  75 CALM      30.05S
MILLARD        CLOUDY    74  63  69 CALM      30.03S
PLATTSMOUTH    CLOUDY    70  64  80 N3        30.03F
WAHOO          LGT RAIN  70  67  89 N5        30.04F
$$




USA.gov is the U.S. government's official web portal to all federal, state and local government web resources and services.